This demonstration page uses our WeatherBlox Daily Observations layout. Learn more.

40.92945, -100.16068

Hourly Observations for May 16, 2016

Temp ( °F °C ) Dew Point ( °F °C ) Humidity (%) Winds ( mph kmh ) Pressure ( in mb ) Visibility ( mi km ) Precip ( " mm )
12:15 am 00:15 Cloudy 46 8 39 4 76 76 SE 13 20 30.09 1019 10 16.0934 N/A
12:35 am 00:35 Cloudy with Light Drizzle 46 7.6 40 4.6 82 82 SE 13 20 30.09 1019 10 16.0934 N/A
12:55 am 00:55 Cloudy with Drizzle 45 7.2 41 4.8 85 85 SE 12 19 30.12 1020 10 16.0934 N/A
1:15 am 01:15 Cloudy with Light Drizzle 45 7.1 41 5 87 87 SE 7 11 30.12 1020 10 16.0934 N/A
1:35 am 01:35 Cloudy with Drizzle 45 7 41 5.2 88 88 SE 8 13 30.09 1019 10 16.0934 N/A
1:55 am 01:55 Cloudy with Light Drizzle 45 7 41 5.1 88 88 SE 7 11 30.09 1019 10 16.0934 N/A
2:15 am 02:15 Cloudy 45 7.1 41 5.1 87 87 SE 10 17 30.06 1018 10 16.0934 N/A
2:35 am 02:35 Cloudy 45 7 42 5.3 89 89 SE 12 19 30.09 1019 10 16.0934 N/A
2:55 am 02:55 Cloudy 45 7 41 5.2 88 88 SE 12 19 30.09 1019 10 16.0934 N/A
3:15 am 03:15 Cloudy 45 7 42 5.5 90 90 SE 9 15 30.09 1019 10 16.0934 N/A
3:35 am 03:35 Cloudy with Light Rain 45 7.1 41 5.2 88 88 SE 10 17 30.06 1018 10 16.0934 N/A
3:55 am 03:55 Cloudy with Rain 45 7.1 41 5.2 88 88 SE 8 13 30.06 1018 10 16.0934 N/A
4:15 am 04:15 Cloudy with Light Drizzle 45 7 41 5.2 88 88 SE 10 17 30.09 1019 10 16.0934 N/A
4:35 am 04:35 Cloudy with Light Drizzle 45 7 42 5.4 90 90 SE 10 17 30.09 1019 10 16.0934 N/A
4:55 am 04:55 Cloudy 45 7 42 5.5 90 90 SE 9 15 30.09 1019 10 16.0934 N/A
5:15 am 05:15 Cloudy 45 7.1 42 5.5 90 90 ESE 8 13 30.06 1018 10 16.0934 N/A
5:35 am 05:35 Cloudy with Drizzle 45 7.1 42 5.5 90 90 ESE 12 19 30.06 1018 10 16.0934 N/A
5:55 am 05:55 Cloudy with Light Drizzle 45 7 42 5.5 90 90 ESE 9 15 30.09 1019 10 16.0934 N/A
6:15 am 06:15 Cloudy with Light Drizzle 45 7 42 5.5 90 90 ESE 9 15 30.09 1019 10 16.0934 N/A
6:35 am 06:35 Cloudy 45 7 42 5.7 92 92 ESE 8 13 30.09 1019 10 16.0934 N/A
6:55 am 06:55 Cloudy 45 7.1 42 5.8 92 92 ESE 8 13 30.06 1018 10 16.0934 N/A
7:15 am 07:15 Cloudy with Light Drizzle 45 7.1 42 5.8 92 92 ESE 8 13 30.06 1018 10 16.0934 N/A
7:35 am 07:35 Cloudy with Light Rain 45 7.3 43 6 92 92 ESE 9 15 30.06 1018 10 16.0934 N/A
7:55 am 07:55 Cloudy with Light Drizzle 45 7.4 43 6.2 92 92 E 9 15 30.06 1018 10 16.0934 N/A
8:15 am 08:15 Cloudy with Light Rain 46 7.5 43 6.3 92 92 ESE 9 15 30.06 1018 7 11.26538 N/A
8:35 am 08:35 Cloudy with Rain 46 7.6 44 6.5 93 93 E 7 11 30.06 1018 7 11.26538 0.01 0.254
8:55 am 08:55 Cloudy with Drizzle 46 7.7 44 6.5 92 92 ESE 9 15 30.06 1018 10 16.0934 0.01 0.254
9:15 am 09:15 Cloudy with Light Rain 46 7.8 44 6.6 92 92 ESE 8 13 30.06 1018 10 16.0934 0.01 0.254
9:35 am 09:35 Cloudy with Light Rain 47 8.2 44 6.9 92 92 E 9 15 30.06 1018 10 16.0934 0.01 0.254
9:55 am 09:55 Cloudy 47 8.3 44 6.9 91 91 ESE 8 13 30.06 1018 10 16.0934 0.01 0.254
10:15 am 10:15 Cloudy 47 8.5 45 7.1 91 91 E 8 13 30.06 1018 10 16.0934 N/A
10:35 am 10:35 Cloudy 48 8.7 45 7.1 90 90 E 9 15 30.06 1018 10 16.0934 N/A
10:55 am 10:55 Cloudy 48 9 45 7.2 89 89 E 9 15 30.06 1018 10 16.0934 N/A
11:15 am 11:15 Cloudy 48 9.1 45 7.2 88 88 E 12 19 30.06 1018 10 16.0934 N/A
11:35 am 11:35 Cloudy 49 9.2 45 7.3 88 88 E 8 13 30.06 1018 10 16.0934 0.01 0.254
11:55 am 11:55 Cloudy 48 9.1 45 7.1 87 87 E 9 15 30.06 1018 7 11.26538 0.01 0.254
12:15 pm 12:15 Cloudy 49 9.4 45 7.1 86 86 E 13 20 30.06 1018 10 16.0934 N/A
12:35 pm 12:35 Cloudy 49 9.6 45 7 84 84 E 13 20 30.06 1018 10 16.0934 N/A
12:55 pm 12:55 Cloudy 49 9.7 44 6.7 82 82 E 13 20 30.06 1018 10 16.0934 0 0
1:15 pm 13:15 Cloudy 49 9.2 44 6.5 83 83 E 12 19 30.06 1018 7 11.26538 N/A
1:35 pm 13:35 Cloudy 50 10.1 45 7.2 82 82 ENE 15 24 30.06 1018 10 16.0934 N/A
1:55 pm 13:55 Cloudy 49 9.3 43 6.2 81 81 ENE 14 22 30.06 1018 10 16.0934 N/A
2:15 pm 14:15 Cloudy 49 9.5 44 6.6 82 82 ENE 15 24 30.06 1018 10 16.0934 N/A
2:35 pm 14:35 Cloudy 51 10.5 45 7.3 81 81 E 15 24 30.03 1017 10 16.0934 N/A
2:55 pm 14:55 Cloudy 50 10.1 45 7.1 82 82 ENE 15 24 30.06 1018 10 16.0934 N/A
3:15 pm 15:15 Cloudy with Nearby Thunderstorms 48 9.1 44 6.9 86 86 ENE 16 26 30.06 1018 10 16.0934 N/A
3:35 pm 15:35 Cloudy 49 9.4 44 6.6 83 83 ENE 16 26 30.06 1018 10 16.0934 N/A
3:55 pm 15:55 Cloudy 51 10.3 45 7.1 81 81 NE 17 28 30.03 1017 10 16.0934 N/A
4:15 pm 16:15 Cloudy 50 10.2 44 6.4 78 78 ENE 13 20 30.06 1018 10 16.0934 N/A
4:35 pm 16:35 Cloudy 50 10 44 6.4 79 79 ENE 13 20 30.06 1018 10 16.0934 N/A
4:55 pm 16:55 Cloudy 50 10.1 44 6.5 79 79 ENE 14 22 30.06 1018 10 16.0934 N/A
5:15 pm 17:15 Cloudy 50 10.2 43 6.2 76 76 ENE 14 22 30.06 1018 10 16.0934 N/A
5:35 pm 17:35 Cloudy 51 10.3 44 6.4 77 77 ENE 10 17 30.03 1017 10 16.0934 N/A
5:55 pm 17:55 Cloudy with Nearby Thunderstorms 50 9.9 43 6.3 79 79 E 12 19 30.09 1019 10 16.0934 N/A
6:15 pm 18:15 Cloudy 50 10 44 6.4 79 79 ENE 12 19 30.09 1019 10 16.0934 N/A
6:35 pm 18:35 Cloudy 49 9.7 44 6.6 81 81 ENE 14 22 30.06 1018 10 16.0934 N/A
6:55 pm 18:55 Cloudy 49 9.6 44 6.4 81 81 NE 14 22 30.06 1018 10 16.0934 N/A
7:15 pm 19:15 Cloudy 49 9.4 43 6.3 81 81 NE 13 20 30.06 1018 10 16.0934 N/A
7:35 pm 19:35 Cloudy 48 9 44 6.5 85 85 NE 16 26 30.09 1019 10 16.0934 N/A
7:55 pm 19:55 Cloudy 48 9 44 6.5 85 85 NE 13 20 30.09 1019 10 16.0934 N/A
8:15 pm 20:15 Cloudy 48 9.1 44 6.6 85 85 NE 13 20 30.09 1019 10 16.0934 N/A
8:35 pm 20:35 Cloudy 48 9 44 6.5 85 85 NE 9 15 30.12 1020 10 16.0934 N/A
8:55 pm 20:55 Cloudy 48 8.9 44 6.5 85 85 ENE 9 15 30.12 1020 10 16.0934 N/A
9:15 pm 21:15 Cloudy 48 8.7 44 6.5 86 86 ENE 12 19 30.12 1020 10 16.0934 N/A
9:35 pm 21:35 Cloudy 47 8.6 44 6.5 87 87 ENE 9 15 30.12 1020 10 16.0934 N/A
9:55 pm 21:55 Cloudy 47 8.5 43 6.1 85 85 NE 9 15 30.15 1021 10 16.0934 N/A
10:15 pm 22:15 Cloudy 47 8.5 43 6 84 84 ENE 8 13 30.15 1021 10 16.0934 N/A
10:35 pm 22:35 Cloudy 47 8.1 43 6 87 87 NE 8 13 30.15 1021 10 16.0934 N/A
10:55 pm 22:55 Cloudy 47 8.1 43 6.1 87 87 NE 3 6 30.15 1021 10 16.0934 N/A
11:15 pm 23:15 Cloudy 46 8 43 6.2 89 89 NNE 5 7 30.15 1021 10 16.0934 N/A
11:35 pm 23:35 Cloudy 47 8.1 44 6.5 90 90 NNE 6 9 30.15 1021 10 16.0934 N/A
11:55 pm 23:55 Cloudy 47 8.3 44 6.8 90 90 NNE 7 11 30.18 1022 10 16.0934 N/A

Powered by AerisWeather